Powrót do katalogu

NOAA 16 DEB

AktywnyPO
NORAD 41359·DEBRIS·🇺🇸 United States

Wystrzelony Sep 21, 2000 z Vandenberg Space Force Base

Loading…

Następne Przeloty (najbliższe 24 godziny)

TLE

ŚwieżeSource: Space-Track

Epoka: Sep 14, 2026, 08:34 UTC

1 41359U 00055JC  26257.35763096  .00005440  00000-0  11633-2 0  9992
2 41359  98.9405 100.4756 0020806 155.1817 205.0386 14.59105054553052

Śledź NOAA 16 DEB w czasie rzeczywistym z AllMySat

Download on the App Store